Location: Huntington
(40.8831°N, 85.4975°W)
Time: 15:50:37
(UTC-04:00)

N. Korean satellite - Visible Passes

Search period start: 13 April 2021 00:00
Search period end: 23 April 2021 00:00
Orbit: 453 x 499 km, 97.2° (Epoch: 13 April)

Date Brightness Start Highest point End Pass type
(mag) Time Alt. Az. Time Alt. Az. Time Alt. Az.
13 Apr 9.1 06:28:23 10° NE 06:31:28 26° E 06:34:31 10° SSE visible
14 Apr 9.9 06:02:48 10° ENE 06:04:19 12° E 06:05:48 10° ESE visible
17 Apr 9.6 06:14:19 10° NE 06:16:45 17° E 06:19:09 10° SE visible
20 Apr 9.2 06:26:11 10° NE 06:29:07 24° E 06:32:02 10° SSE visible
21 Apr 10.0 06:00:50 10° ENE 06:01:56 11° E 06:03:01 10° ESE visible
